Location: East Irvine
(33.6759°N, 117.7598°W)
Time: 23:22:58
(UTC+00:00)

SL-16 R/B - Pass Details

Date: 15 November 2025
Orbit: 985 x 1006 km, 99.8° (Epoch: 13 December)

Event Time Altitude Azimuth Distance (km) Brightness Sun altitude
Rises 11:13:11 0° 155° (SSE) 3,697 5.8 -39.5°
Reaches altitude 10° 11:15:39 10° 152° (SSE) 2,754 5.1 -39.0°
Enters shadow 11:17:36 22° 148° (SSE) 2,046 4.4 -38.6°
